Content
SEND FEEDBACK

Daily
Averages
Monthly
Summary
Vietnam

HUE, VIETNAM


Home > Asia > Vietnam
Elevation: 14 meters     Latitude: 16 23N     Longitude: 107 42E

WEATHER
 
SELECT A DAY
Number of Records: 94,282;   Date Range: 6/19/04 - 8/12/14
 
SHARE

PRINT THIS DATA

[ ← Previous Day ]
WEATHER ALMANAC - 23 JANUARY, 2013
[ Next Day → ]
[ °F ]   °C
Weather ElementAverageHighLow
Temperature22.5 °C27 °C (11:30 am)18.9 °C (7:00 am)
Dewpoint19.6 °C20.6 °C (1:00 am)18 °C (7:00 am)
Humidity84 %100 % (6:30 am)61 % (11:30 am)
Barometer1016.9 hPa1019 hPa (8:30 am)1015.2 hPa (2:30 pm)
Wind Speed5.1 km/h11.1 km/h (12:30 pm)
Weather ElementAverage
Visibility8.4 km
Wind DirectionNE (43.1 °)

Weather ElementTotal
Precipitation---
Cooling Degree Days4.6 (Base 18.3)
Growing Degree Days12.9 (Base 10)
Averaged from 53 records on 23 January, 2013
WEATHER CONDITIONS BREAKOUT
WIND DIRECTION BREAKOUT
WEATHER BY HOUR - 23 JANUARY, 2013
[ °F ]   °C
Local TimeTemperatureDewpointHumidityBarometerVisibilityWind DirectionWind SpeedGust SpeedPrecipitationEventsConditions
1:00 AM21.1 °C20.6 °C94 %1017.6 hPa19.3 kmCalmMostly Cloudy
1:00 AM21 °C20 °C94 %1017.9 hPa6 kmVariable1.9 km/hMostly Cloudy
1:30 AM21 °C20 °C94 %1017.9 hPa6 kmVariable1.9 km/hMostly Cloudy
2:00 AM21 °C20 °C94 %1017.3 hPa6 kmVariable3.7 km/hMostly Cloudy
2:30 AM21 °C20 °C94 %1017.3 hPa6 kmVariable3.7 km/hMostly Cloudy
3:00 AM21 °C20 °C94 %1017.3 hPa6 kmVariable1.9 km/hMostly Cloudy
3:30 AM21 °C20 °C94 %1017.3 hPa6 kmVariable3.7 km/hMostly Cloudy
4:00 AM21 °C20 °C94 %1017.3 hPa6 kmVariable3.7 km/hMostly Cloudy
4:00 AM20.6 °C20 °C96 %1016.3 hPa19.3 kmCalmMostly Cloudy
4:30 AM21 °C20 °C94 %1016.3 hPa6 kmVariable3.7 km/hMostly Cloudy
5:00 AM20 °C19 °C94 %1017.3 hPa6 kmVariable3.7 km/hMostly Cloudy
6:00 AM20 °C19 °C94 %1017.3 hPa5 kmVariable3.7 km/hMostly Cloudy
6:30 AM19 °C19 °C100 %1017.3 hPa3.1 kmVariable3.7 km/hMostly Cloudy
7:00 AM19 °C18 °C94 %1017.9 hPa2.6 kmVariable1.9 km/hScattered Clouds
7:00 AM18.9 °C18.3 °C97 %1017.3 hPa0 kmCalmFogPartial Fog
7:30 AM21 °C20 °C94 %1017.9 hPa3.1 kmVariable3.7 km/hScattered Clouds
8:00 AM22 °C20 °C88 %1017.9 hPa6.9 kmVariable3.7 km/hPartly Cloudy
8:30 AM23 °C20 °C83 %1019 hPa8 kmVariable3.7 km/hPartly Cloudy
9:00 AM24 °C20 °C78 %1019 hPa8 kmVariable1.9 km/hPartly Cloudy
9:30 AM25 °C20 °C74 %1019 hPa8 kmVariable3.7 km/hPartly Cloudy
10:00 AM26 °C19 °C65 %1019 hPa10 kmVariable3.7 km/hPartly Cloudy
10:00 AM24.4 °C19.4 °C67 %1018.3 hPa19.3 kmNNW (340°)3.5 km/hPartly Cloudy
10:30 AM25 °C20 °C74 %1019 hPa10 kmVariable3.7 km/hScattered Clouds
11:00 AM26 °C19 °C65 %1017.9 hPa10 kmNNE (20°)7.4 km/hScattered Clouds
11:30 AM27 °C19 °C61 %1017.9 hPa10 kmNE (40°)7.4 km/hScattered Clouds
12:00 PM26 °C18 °C61 %1017.9 hPa10 kmNNE (20°)9.3 km/hScattered Clouds
12:30 PM27 °C19 °C61 %1017.3 hPa10 kmEast (80°)11.1 km/hScattered Clouds
1:00 PM26.1 °C20 °C61 %1016.3 hPa19.3 kmENE (70°)7.2 km/hPartly Cloudy
1:00 PM27 °C19 °C61 %1017.3 hPa10 kmEast (80°)11.1 km/hScattered Clouds
1:30 PM26 °C19 °C65 %1016.3 hPa10 kmENE (60°)11.1 km/hScattered Clouds
2:00 PM26 °C19 °C65 %1016.3 hPa10 kmNE (50°)11.1 km/hScattered Clouds
2:30 PM26 °C19 °C65 %1015.2 hPa10 kmNE (50°)11.1 km/hScattered Clouds
3:00 PM25 °C19 °C69 %1015.2 hPa10 kmNE (50°)9.3 km/hScattered Clouds
3:30 PM25 °C19 °C69 %1015.2 hPa10 kmNE (50°)9.3 km/hScattered Clouds
4:00 PM24.4 °C20 °C69 %1015.2 hPa19.3 kmNE (50°)7.2 km/hMostly Cloudy
4:00 PM25 °C20 °C74 %1015.2 hPa10 kmENE (60°)11.1 km/hScattered Clouds
4:30 PM24 °C19 °C73 %1016.3 hPa10 kmNE (50°)11.1 km/hScattered Clouds
5:00 PM24 °C20 °C78 %1016.3 hPa10 kmENE (60°)7.4 km/hScattered Clouds
5:30 PM23 °C20 °C83 %1016.3 hPa10 kmNNE (20°)7.4 km/hScattered Clouds
6:00 PM22 °C20 °C88 %1016.3 hPa10 kmNE (50°)7.4 km/hScattered Clouds
6:30 PM22 °C20 °C88 %1016.3 hPa10 kmNE (50°)5.6 km/hScattered Clouds
7:00 PM21.1 °C19.4 °C89 %1015.6 hPa19.3 kmCalmScattered Clouds
7:00 PM22 °C20 °C88 %1016.3 hPa10 kmNNE (20°)5.6 km/hScattered Clouds
7:30 PM21 °C20 °C94 %1016.3 hPa10 kmVariable3.7 km/hScattered Clouds
8:00 PM21 °C20 °C94 %1017.3 hPa5 kmVariable3.7 km/hScattered Clouds
8:30 PM20 °C20 °C100 %1017.3 hPa4 kmVariable3.7 km/hScattered Clouds
9:00 PM20 °C20 °C100 %1017.3 hPa3.5 kmWest (280°)5.6 km/hPartly Cloudy
9:30 PM20 °C19 °C94 %1017.3 hPa4 kmWest (260°)5.6 km/hScattered Clouds
10:00 PM19.4 °C18.9 °C97 %1016.6 hPa3.2 kmCalmMist
10:00 PM20 °C20 °C100 %1017.3 hPa4 kmVariable3.7 km/hScattered Clouds
10:30 PM20 °C20 °C100 %1017.3 hPa3.5 kmVariable3.7 km/hScattered Clouds
11:00 PM20 °C20 °C100 %1017.3 hPa3.5 kmVariable3.7 km/hScattered Clouds
11:30 PM20 °C19 °C94 %1017.3 hPa3.1 kmWest (260°)5.6 km/hScattered Clouds
Hourly data recorded from VVPB, located 0 kilometers away from Hue, Vietnam







STORIES FROM OUR PARTNERS